G4CVN Weather Reports


Display with metric or nautical units.
time (UTC)temp
F
wind
direction
speed
MPH
gust
MPH
rain 1hr
in
rain 24hr
in
rain mn
in
humidity
%
barometer
mb
20230201120517 48 203 3.0 11.0 0.00 0.00 0.00 78 1023.5
20230201115517 48 203 3.0 7.0 0.00 0.00 0.00 79 1023.5
20230201114538 48 225 3.0 7.0 0.00 0.00 0.00 80 1023.5
20230201113517 47 225 2.0 6.0 0.00 0.00 0.00 80 1023.5
20230201112517 47 225 3.0 8.0 0.00 0.00 0.00 80 1023.6
20230201111518 46 203 4.0 10.0 0.00 0.00 0.00 81 1023.6
20230201110537 46 225 3.0 8.0 0.00 0.00 0.00 82 1023.7
20230201105537 46 203 2.0 7.0 0.00 0.00 0.00 82 1023.7
20230201104518 45 225 3.0 11.0 0.00 0.00 0.00 83 1023.7
20230201103518 45 203 3.0 12.0 0.00 0.00 0.00 83 1023.6
20230201102517 44 225 3.0 8.0 0.00 0.00 0.00 84 1023.5
20230201101517 44 225 3.0 6.0 0.00 0.00 0.00 84 1023.5
20230201100517 44 203 3.0 7.0 0.00 0.00 0.00 84 1023.6
20230201095517 44 203 3.0 5.0 0.00 0.00 0.00 84 1023.6
20230201094518 44 225 3.0 8.0 0.00 0.00 0.00 84 1023.7
20230201093517 44 203 2.0 5.0 0.00 0.00 0.00 84 1023.8
20230201092557 44 225 3.0 8.0 0.00 0.00 0.00 84 1023.7
20230201091538 44 203 3.0 6.0 0.00 0.00 0.00 85 1023.6
20230201090517 43 248 2.0 5.0 0.00 0.00 0.00 85 1023.5
20230201085537 43 203 3.0 5.0 0.00 0.00 0.00 85 1023.4
20230201084518 43 203 2.0 5.0 0.00 0.00 0.00 85 1023.4
20230201083518 43 225 2.0 8.0 0.00 0.00 0.00 86 1023.6
20230201082517 43 225 2.0 6.0 0.00 0.00 0.00 86 1023.6
20230201081538 43 225 3.0 6.0 0.00 0.00 0.00 86 1023.5
20230201080517 43 225 3.0 5.0 0.00 0.00 0.00 86 1023.5
20230201075517 43 203 2.0 7.0 0.00 0.00 0.00 86 1023.3
20230201074518 43 225 2.0 5.0 0.00 0.00 0.00 85 1023.2
20230201073517 43 225 2.0 7.0 0.00 0.00 0.00 85 1023.1
20230201072538 43 203 2.0 5.0 0.00 0.00 0.00 85 1023.0
20230201071537 43 225 2.0 7.0 0.00 0.00 0.00 85 1023.0
20230201070518 43 203 2.0 4.0 0.00 0.00 0.00 85 1022.9
20230201065517 43 203 2.0 4.0 0.00 0.00 0.00 85 1022.8
20230201064537 43 225 2.0 6.0 0.00 0.00 0.00 85 1022.8
20230201063538 43 225 2.0 5.0 0.00 0.00 0.00 85 1022.9
20230201062517 43 225 2.0 8.0 0.00 0.00 0.00 85 1023.1
20230201061517 42 225 3.0 7.0 0.00 0.00 0.00 85 1023.1
20230201060518 42 203 2.0 6.0 0.00 0.00 0.00 85 1023.1
20230201055515 42 225 2.0 6.0 0.00 0.00 0.00 85 1022.9
20230201054517 42 225 2.0 6.0 0.00 0.00 0.00 85 1023.0
20230201053517 42 203 2.0 7.0 0.00 0.00 0.00 85 1023.0
20230201052518 42 225 3.0 7.0 0.00 0.00 0.00 84 1023.0
20230201051517 42 225 3.0 6.0 0.00 0.00 0.00 84 1022.9
20230201050518 42 225 2.0 5.0 0.00 0.00 0.00 84 1022.8
20230201045517 41 225 2.0 5.0 0.00 0.00 0.00 85 1022.7
20230201044517 41 225 2.0 7.0 0.00 0.00 0.00 85 1022.8
20230201043538 42 203 2.0 5.0 0.00 0.00 0.00 85 1022.7
20230201042536 42 225 2.0 5.0 0.00 0.00 0.00 84 1022.7
20230201041516 42 225 2.0 6.0 0.00 0.00 0.00 84 1022.8
20230201040518 42 225 2.0 5.0 0.00 0.00 0.00 84 1022.8
20230201035537 42 225 3.0 8.0 0.00 0.00 0.00 84 1022.7
20230201034517 42 203 2.0 7.0 0.00 0.00 0.00 84 1022.6
20230201033537 42 225 3.0 10.0 0.00 0.00 0.00 85 1022.7
20230201032517 42 225 2.0 12.0 0.00 0.00 0.00 85 1022.9
20230201031516 41 225 3.0 6.0 0.00 0.00 0.00 86 1022.9
20230201030516 41 203 2.0 6.0 0.00 0.00 0.00 86 1022.9
20230201025515 41 225 2.0 5.0 0.00 0.00 0.00 86 1022.9
20230201024515 41 225 2.0 5.0 0.00 0.00 0.00 86 1023.0
20230201023515 41 225 2.0 6.0 0.00 0.00 0.00 87 1023.0
20230201022516 41 225 2.0 6.0 0.00 0.00 0.00 87 1023.1
20230201021515 41 225 2.0 5.0 0.00 0.00 0.00 87 1023.1
20230201020515 41 225 2.0 7.0 0.00 0.00 0.00 87 1023.1
20230201015515 41 225 2.0 7.0 0.00 0.00 0.00 87 1023.2
20230201014515 41 270 1.0 4.0 0.00 0.00 0.00 87 1023.1
20230201013515 41 225 2.0 7.0 0.00 0.00 0.00 87 1023.0
20230201012515 41 225 2.0 6.0 0.00 0.00 0.00 87 1023.1
20230201011535 41 225 2.0 5.0 0.00 0.00 0.00 86 1023.2
20230201010516 41 225 2.0 5.0 0.00 0.00 0.00 86 1023.3
20230201005515 41 203 3.0 7.0 0.00 0.00 0.00 86 1023.4
20230201004515 41 225 2.0 4.0 0.00 0.00 0.00 85 1023.6
20230201003515 41 225 2.0 5.0 0.00 0.00 0.00 85 1023.8
20230201002516 41 225 2.0 6.0 0.00 0.00 0.00 85 1023.7
20230201001515 41 225 2.0 7.0 0.00 0.00 0.00 85 1023.8
20230201000515 41 203 2.0 6.0 0.00 0.00 0.00 85 1023.6
20230131235535 41 225 2.0 6.0 0.00 0.00 0.00 85 1023.5
20230131234516 41 203 1.0 4.0 0.00 0.00 0.00 84 1023.4
20230131233515 41 225 2.0 5.0 0.00 0.00 0.00 84 1023.4
20230131232516 41 225 2.0 8.0 0.00 0.00 0.00 83 1023.5
20230131231515 41 203 2.0 5.0 0.00 0.00 0.00 83 1023.6
20230131230515 41 225 3.0 6.0 0.00 0.00 0.00 82 1023.7
20230131225515 41 225 1.0 6.0 0.00 0.00 0.00 82 1023.5
20230131224535 42 225 2.0 4.0 0.00 0.00 0.00 81 1023.4
20230131223516 42 225 2.0 5.0 0.00 0.00 0.00 80 1023.3
20230131223015 42 225 2.0 4.0 0.00 0.00 0.00 79 1023.4
20230131222015 42 203 2.0 5.0 0.00 0.00 0.00 80 1023.5
20230131221015 42 225 2.0 5.0 0.00 0.00 0.00 80 1023.6
20230131220016 42 203 2.0 5.0 0.00 0.00 0.00 81 1023.5
20230131215015 41 225 2.0 4.0 0.00 0.00 0.00 81 1023.5
20230131214015 41 225 1.0 2.0 0.00 0.00 0.00 81 1023.5
20230131213015 42 225 1.0 3.0 0.00 0.00 0.00 82 1023.4
20230131212015 42 225 2.0 4.0 0.00 0.00 0.00 81 1023.6
20230131211015 42 225 1.0 3.0 0.00 0.00 0.00 81 1023.6
20230131210015 42 225 1.0 5.0 0.00 0.00 0.00 81 1023.7
20230131205016 43 225 1.0 4.0 0.00 0.00 0.00 81 1023.7
20230131204035 43 225 1.0 3.0 0.00 0.00 0.00 81 1023.6
20230131203015 43 225 1.0 3.0 0.00 0.00 0.00 80 1023.6
20230131202016 43 270 1.0 2.0 0.00 0.00 0.00 80 1023.8
20230131201035 43 225 1.0 4.0 0.00 0.00 0.00 80 1023.6
20230131200035 44 225 1.0 3.0 0.00 0.00 0.00 80 1023.6
20230131195016 44 0.0 2.0 0.00 0.00 0.00 79 1023.5
20230131194015 44 225 1.0 4.0 0.00 0.00 0.00 78 1023.4
20230131193015 44 270 1.0 2.0 0.00 0.00 0.00 78 1023.3
20230131192016 44 225 1.0 2.0 0.00 0.00 0.00 77 1023.3
20230131191015 44 225 1.0 2.0 0.00 0.00 0.00 76 1023.2
20230131190015 45 225 1.0 2.0 0.00 0.00 0.00 76 1023.3
20230131185016 45 225 1.0 3.0 0.00 0.00 0.00 75 1023.3
20230131184015 46 0.0 1.0 0.00 0.00 0.00 75 1023.2
20230131183015 46 225 1.0 3.0 0.00 0.00 0.00 75 1023.2
20230131182016 46 225 1.0 4.0 0.00 0.00 0.00 75 1023.2
20230131181015 46 225 1.0 5.0 0.00 0.00 0.00 75 1023.3
20230131180015 46 225 1.0 4.0 0.00 0.00 0.00 75 1023.2
20230131175016 46 225 1.0 2.0 0.00 0.00 0.00 74 1023.0
20230131174015 46 0.0 2.0 0.00 0.00 0.00 74 1023.1
20230131173015 47 248 1.0 2.0 0.00 0.00 0.00 73 1023.0
20230131172016 47 0.0 2.0 0.00 0.00 0.00 72 1022.9
20230131171035 47 0.0 2.0 0.00 0.00 0.00 72 1022.9
20230131170015 48 225 1.0 5.0 0.00 0.00 0.00 71 1022.9
20230131165016 48 0.0 2.0 0.00 0.00 0.00 70 1022.8
20230131164015 48 248 1.0 5.0 0.00 0.00 0.00 69 1022.8
20230131163015 49 293 1.0 5.0 0.00 0.00 0.00 69 1022.7
20230131162016 49 270 3.0 7.0 0.00 0.00 0.00 68 1022.7
20230131161015 49 270 2.0 6.0 0.00 0.00 0.00 68 1022.6
20230131160015 50 293 3.0 10.0 0.00 0.00 0.00 67 1022.6
20230131155016 50 270 3.0 10.0 0.00 0.00 0.00 67 1022.6
20230131154055 50 203 3.0 11.0 0.00 0.00 0.00 68 1022.5
20230131153015 51 293 2.0 9.0 0.00 0.00 0.00 68 1022.4
20230131152016 51 135 3.0 11.0 0.00 0.00 0.00 68 1022.3
20230131151035 51 248 4.0 9.0 0.00 0.00 0.00 69 1022.2
20230131150015 51 293 5.0 15.0 0.00 0.00 0.00 69 1022.2
20230131145016 52 270 4.0 18.0 0.00 0.00 0.00 75 1021.9
20230131144015 52 203 3.0 8.0 0.00 0.00 0.00 77 1021.9
20230131143035 52 248 1.0 6.0 0.00 0.00 0.00 78 1021.8
20230131142016 52 203 3.0 6.0 0.00 0.00 0.00 78 1021.6
20230131141035 52 225 2.0 6.0 0.00 0.00 0.00 80 1021.6
20230131140015 52 225 3.0 11.0 0.00 0.00 0.00 80 1021.8
20230131135016 52 248 3.0 10.0 0.00 0.00 0.00 81 1021.9
20230131134015 52 225 3.0 6.0 0.00 0.00 0.00 82 1022.0
20230131133035 52 203 3.0 8.0 0.00 0.00 0.00 81 1022.0
20230131132016 52 225 3.0 13.0 0.00 0.00 0.00 82 1022.0
20230131131015 52 225 3.0 11.0 0.00 0.00 0.00 83 1021.9
20230131130035 52 225 3.0 8.0 0.00 0.00 0.00 85 1021.9
20230131125016 51 203 2.0 6.0 0.00 0.00 0.00 86 1021.8
20230131124015 51 225 3.0 11.0 0.00 0.00 0.00 86 1021.9
20230131123015 50 225 3.0 7.0 0.00 0.00 0.00 87 1022.0
20230131122016 50 225 3.0 6.0 0.00 0.00 0.00 88 1022.0
20230131121015 50 225 3.0 7.0 0.00 0.00 0.00 92 1022.1